DW6747 Weather Reports


Display with metric or nautical units.
time (UTC)temp
F
wind
direction
speed
MPH
gust
MPH
rain 1hr
in
rain 24hr
in
rain mn
in
humidity
%
barometer
mb
20260510191903 80 83 0.0 3.0 0.00 0.00 0.00 39 1013.1
20260510190918 80 5 0.0 1.0 0.00 0.00 0.00 40 1013.2
20260510185856 79 164 1.0 7.0 0.00 0.00 0.00 37 1013.1
20260510184849 79 79 0.0 2.0 0.00 0.00 0.00 38 1013.2
20260510183832 79 107 0.0 2.0 0.00 0.00 0.00 40 1013.3
20260510182835 79 178 0.0 10.0 0.00 0.00 0.00 41 1013.3
20260510181817 79 134 1.0 10.0 0.00 0.00 0.00 38 1013.4
20260510175638 78 90 0.0 4.0 0.00 0.00 0.00 41 1013.5
20260510174702 77 60 0.0 6.0 0.00 0.00 0.00 41 1013.7
20260510173719 78 102 1.0 6.0 0.00 0.00 0.00 41 1013.8
20260510172725 78 42 0.0 5.0 0.00 0.00 0.00 43 1013.8
20260510171713 79 51 2.0 6.0 0.00 0.00 0.00 39 1013.8
20260510170713 78 190 0.0 6.0 0.00 0.00 0.00 42 1013.9
20260510165656 78 182 0.0 8.0 0.00 0.00 0.00 43 1013.9
20260510164630 78 184 0.0 2.0 0.00 0.00 0.00 43 1014.0
20260510161441 76 90 1.0 8.0 0.00 0.00 0.00 46 1014.0
20260510160452 74 124 0.0 8.0 0.00 0.00 0.00 47 1014.0
20260510154337 74 127 0.0 3.0 0.00 0.00 0.00 51 1014.1
20260510152148 72 69 0.0 3.0 0.00 0.00 0.00 54 1014.3
20260510151205 72 53 0.0 5.0 0.00 0.00 0.00 51 1014.2
20260510150136 71 246 0.0 2.0 0.00 0.00 0.00 52 1014.3
20260510145137 71 344 0.0 5.0 0.00 0.00 0.00 52 1014.0
20260510144113 71 206 0.0 4.0 0.00 0.00 0.00 52 1013.9
20260510141933 70 42 0.0 4.0 0.00 0.00 0.00 52 1013.8
20260510140951 69 102 0.0 3.0 0.00 0.00 0.00 53 1013.7
20260510140003 68 99 0.0 3.0 0.00 0.00 0.00 56 1013.8
20260510135019 67 246 0.0 2.0 0.00 0.00 0.00 61 1013.9
20260510134021 66 121 0.0 1.0 0.00 0.00 0.00 69 1014.1
20260510132959 65 146 0.0 1.0 0.00 0.00 0.00 71 1014.1
20260510132008 63 146 0.0 0.0 0.00 0.00 0.00 74 1014.0
20260510131028 62 146 0.0 1.0 0.00 0.00 0.00 78 1013.9
20260510130053 60 146 0.0 0.0 0.00 0.00 0.00 80 1013.9
20260510125106 59 146 0.0 1.0 0.00 0.00 0.00 82 1014.1
20260510122956 57 0 0.0 0.0 0.00 0.00 0.00 87 1014.3
20260510121924 55 0 0.0 0.0 0.00 0.00 0.00 91 1014.2
20260510120855 54 0 0.0 2.0 0.00 0.00 0.00 93 1014.1
20260510115832 52 0 0.0 0.0 0.00 0.00 0.00 92 1014.1
20260510114816 52 0 0.0 0.0 0.00 0.00 0.00 93 1013.9
20260510113823 51 0 0.0 0.0 0.00 0.00 0.00 93 1013.9
20260510112841 50 0 0.0 0.0 0.00 0.00 0.00 93 1013.8
20260510111851 50 0 0.0 0.0 0.00 0.00 0.00 93 1013.6
20260510105743 50 0 0.0 0.0 0.00 0.00 0.00 93 1013.3
20260510104734 49 0 0.0 0.0 0.00 0.00 0.00 93 1013.1
20260510103747 49 0 0.0 0.0 0.00 0.00 0.00 93 1012.9
20260510101637 48 0 0.0 0.0 0.00 0.00 0.00 93 1012.5
20260510095446 49 0 0.0 0.0 0.00 0.00 0.00 93 1012.3
20260510094415 49 0 0.0 0.0 0.00 0.00 0.00 93 1012.3
20260510092335 49 0 0.0 0.0 0.00 0.00 0.00 93 1012.4
20260510091318 49 0 0.0 0.0 0.00 0.00 0.00 93 1012.2
20260510083939 50 0 0.0 0.0 0.00 0.00 0.00 93 1012.0
20260510082906 49 0 0.0 0.0 0.00 0.00 0.00 92 1012.1
20260510075614 50 0 0.0 0.0 0.00 0.00 0.00 92 1011.6
20260510072349 51 0 0.0 0.0 0.00 0.00 0.00 92 1011.2
20260510071335 51 0 0.0 0.0 0.00 0.00 0.00 92 1011.2
20260510070302 51 0 0.0 0.0 0.00 0.00 0.00 92 1011.1
20260510065306 51 0 0.0 0.0 0.00 0.00 0.00 92 1011.1
20260510064237 51 0 0.0 0.0 0.00 0.00 0.00 92 1010.8
20260510063211 52 0 0.0 0.0 0.00 0.00 0.00 92 1010.8
20260510062204 52 0 0.0 0.0 0.00 0.00 0.00 91 1010.9
20260510060020 52 0 0.0 0.0 0.00 0.00 0.00 91 1010.8
20260510055043 53 0 0.0 0.0 0.00 0.00 0.00 91 1010.9
20260510052831 53 0 0.0 0.0 0.00 0.00 0.00 91 1011.0
20260510051834 54 0 0.0 0.0 0.00 0.00 0.00 91 1011.1
20260510050839 54 0 0.0 0.0 0.00 0.00 0.00 90 1011.0
20260510045818 54 0 0.0 0.0 0.00 0.00 0.00 90 1011.0
20260510044742 54 0 0.0 0.0 0.00 0.00 0.00 90 1011.0
20260510043712 55 0 0.0 0.0 0.00 0.00 0.00 89 1011.0
20260510042714 55 0 0.0 0.0 0.00 0.00 0.00 89 1011.1
20260510041640 55 0 0.0 0.0 0.00 0.00 0.00 88 1011.1
20260510040646 56 0 0.0 0.0 0.00 0.00 0.00 88 1011.1
20260510035624 56 0 0.0 0.0 0.00 0.00 0.00 87 1011.0
20260510034646 56 0 0.0 0.0 0.00 0.00 0.00 86 1011.0
20260510033707 57 0 0.0 0.0 0.00 0.00 0.00 86 1010.9
20260510032718 57 0 0.0 0.0 0.00 0.00 0.00 85 1010.9
20260510031740 58 355 0.0 0.0 0.00 0.00 0.00 84 1010.9
20260510030750 58 355 0.0 0.0 0.00 0.00 0.00 83 1010.9
20260510025756 58 355 0.0 0.0 0.00 0.00 0.00 82 1010.8
20260510024758 58 355 0.0 0.0 0.00 0.00 0.00 81 1010.8
20260510022625 59 355 0.0 0.0 0.00 0.00 0.00 80 1010.8
20260510021555 60 355 0.0 0.0 0.00 0.00 0.00 79 1010.7
20260510020534 60 355 0.0 0.0 0.00 0.00 0.00 78 1010.6
20260510015507 60 355 0.0 0.0 0.00 0.00 0.00 77 1010.5
20260510014511 61 355 0.0 0.0 0.00 0.00 0.00 76 1010.5
20260510013528 61 337 0.0 0.0 0.00 0.00 0.00 77 1010.3
20260510012457 61 336 0.0 1.0 0.00 0.00 0.00 77 1010.1
20260510011458 61 346 0.0 0.0 0.00 0.00 0.00 78 1010.0
20260510010436 61 346 0.0 0.0 0.00 0.00 0.00 77 1009.9
20260510005427 62 346 0.0 0.0 0.00 0.00 0.00 75 1009.7
20260510004427 63 346 0.0 0.0 0.00 0.00 0.00 74 1009.7
20260510003413 63 346 0.0 0.0 0.00 0.00 0.00 72 1009.6
20260510002413 64 346 0.0 1.0 0.00 0.00 0.00 71 1009.5
20260510001408 65 346 0.0 0.0 0.00 0.00 0.00 70 1009.5
20260510000334 65 346 0.0 0.0 0.00 0.00 0.00 69 1009.4
20260509235307 65 345 0.0 0.0 0.00 0.00 0.00 69 1009.4
20260509233143 66 345 0.0 0.0 0.00 0.00 0.00 67 1009.3
20260509232149 66 346 0.0 0.0 0.00 0.00 0.00 67 1009.0
20260509231120 66 346 0.0 0.0 0.00 0.00 0.00 66 1009.1
20260509230142 67 0 0.0 0.0 0.00 0.00 0.00 65 1009.1
20260509225141 67 165 0.0 0.0 0.00 0.00 0.00 65 1009.0
20260509224149 67 19 0.0 0.0 0.00 0.00 0.00 65 1008.9
20260509223152 68 289 0.0 0.0 0.00 0.00 0.00 65 1009.0
20260509221038 68 112 0.0 0.0 0.00 0.00 0.00 63 1009.0
20260509220029 69 17 0.0 3.0 0.00 0.00 0.00 63 1009.0
20260509214957 69 355 0.0 1.0 0.00 0.00 0.00 63 1009.0
20260509213955 70 304 0.0 0.0 0.00 0.00 0.00 61 1009.0
20260509212931 69 290 0.0 1.0 0.00 0.00 0.00 63 1009.0
20260509211940 68 290 0.0 0.0 0.00 0.00 0.00 64 1009.0
20260509210946 68 284 0.0 1.0 0.00 0.00 0.00 61 1009.0
20260509203650 70 142 1.0 2.0 0.00 0.00 0.00 57 1008.8
20260509202711 70 130 0.0 4.0 0.00 0.00 0.00 58 1008.9
20260509201713 70 168 0.0 9.0 0.00 0.00 0.00 61 1008.8
20260509200728 69 196 0.0 6.0 0.00 0.00 0.00 58 1009.0
20260509195726 69 140 0.0 8.0 0.00 0.00 0.00 58 1009.2
20260509194715 68 167 1.0 8.0 0.00 0.00 0.00 59 1009.5
20260509193727 68 251 0.0 3.0 0.00 0.00 0.00 57 1009.6
20260509192700 68 91 0.0 1.0 0.00 0.00 0.00 58 1009.8